TimePDT,TemperatureF,Dew PointF,Humidity,Sea Level PressureIn,VisibilityMPH,Wind Direction,Wind SpeedMPH,Gust SpeedMPH,PrecipitationIn,Events,Conditions,WindDirDegrees,DateUTC
12:15 AM,42.8,35.6,76,30.07,10.0,Calm,Calm,-,N/A,,Clear,0,2014-04-24 07:15:00
12:35 AM,42.8,35.6,76,30.07,10.0,Calm,Calm,-,N/A,,Clear,0,2014-04-24 07:35:00
12:55 AM,42.8,35.6,76,30.07,10.0,Calm,Calm,-,N/A,,Clear,0,2014-04-24 07:55:00
1:35 AM,41.0,35.6,81,30.06,10.0,Calm,Calm,-,N/A,,Clear,0,2014-04-24 08:35:00
1:55 AM,39.2,35.6,87,30.05,10.0,Calm,Calm,-,N/A,,Clear,0,2014-04-24 08:55:00
2:15 AM,39.2,35.6,87,30.05,10.0,Calm,Calm,-,N/A,,Clear,0,2014-04-24 09:15:00
2:35 AM,39.2,35.6,87,30.05,10.0,Calm,Calm,-,N/A,,Clear,0,2014-04-24 09:35:00
2:55 AM,41.0,35.6,81,30.05,10.0,Calm,Calm,-,N/A,,Clear,0,2014-04-24 09:55:00
3:15 AM,39.2,35.6,87,30.04,10.0,Calm,Calm,-,N/A,,Clear,0,2014-04-24 10:15:00
3:35 AM,41.0,35.6,81,30.04,10.0,NE,3.5,-,N/A,,Clear,40,2014-04-24 10:35:00
3:55 AM,39.2,35.6,87,30.05,10.0,Calm,Calm,-,N/A,,Clear,0,2014-04-24 10:55:00
4:15 AM,41.0,35.6,81,30.05,10.0,NNE,3.5,-,N/A,,Clear,20,2014-04-24 11:15:00
4:35 AM,41.0,35.6,81,30.05,10.0,Calm,Calm,-,N/A,,Clear,0,2014-04-24 11:35:00
4:55 AM,41.0,35.6,81,30.04,10.0,NNE,3.5,-,N/A,,Clear,30,2014-04-24 11:55:00
5:15 AM,39.2,35.6,87,30.03,10.0,Calm,Calm,-,N/A,,Clear,0,2014-04-24 12:15:00
5:35 AM,39.2,35.6,87,30.03,10.0,Calm,Calm,-,N/A,,Clear,0,2014-04-24 12:35:00
5:55 AM,39.2,35.6,87,30.04,10.0,Calm,Calm,-,N/A,,Clear,0,2014-04-24 12:55:00
6:15 AM,39.2,35.6,87,30.04,10.0,Calm,Calm,-,N/A,,Clear,0,2014-04-24 13:15:00
6:35 AM,39.2,37.4,93,30.05,10.0,Calm,Calm,-,N/A,,Clear,0,2014-04-24 13:35:00
6:55 AM,41.0,37.4,87,30.05,10.0,Calm,Calm,-,N/A,,Clear,0,2014-04-24 13:55:00
7:15 AM,46.4,39.2,76,30.06,10.0,Calm,Calm,-,N/A,,Clear,0,2014-04-24 14:15:00
7:35 AM,50.0,39.2,66,30.07,10.0,Calm,Calm,-,N/A,,Clear,0,2014-04-24 14:35:00
7:55 AM,53.6,39.2,58,30.07,10.0,South,4.6,-,N/A,,Clear,180,2014-04-24 14:55:00
8:15 AM,55.4,37.4,51,30.07,10.0,SSW,3.5,-,N/A,,Clear,210,2014-04-24 15:15:00
8:35 AM,55.4,39.2,54,30.08,10.0,South,5.8,-,N/A,,Clear,170,2014-04-24 15:35:00
8:55 AM,57.2,41.0,55,30.08,10.0,SSE,4.6,-,N/A,,Clear,160,2014-04-24 15:55:00
9:15 AM,57.2,41.0,55,30.08,10.0,SSE,5.8,-,N/A,,Clear,150,2014-04-24 16:15:00
9:35 AM,59.0,44.6,59,30.09,10.0,SSE,4.6,-,N/A,,Clear,150,2014-04-24 16:35:00
9:55 AM,59.0,42.8,55,30.09,10.0,Calm,Calm,-,N/A,,Clear,0,2014-04-24 16:55:00
10:15 AM,62.6,42.8,48,30.09,10.0,WSW,6.9,-,N/A,,Clear,240,2014-04-24 17:15:00
10:35 AM,62.6,41.0,45,30.09,10.0,West,4.6,-,N/A,,Clear,270,2014-04-24 17:35:00
10:55 AM,62.6,39.2,42,30.09,10.0,Calm,Calm,-,N/A,,Clear,0,2014-04-24 17:55:00
11:15 AM,64.4,39.2,40,30.09,10.0,West,3.5,-,N/A,,Clear,280,2014-04-24 18:15:00
11:35 AM,64.4,41.0,42,30.08,10.0,WSW,5.8,-,N/A,,Clear,240,2014-04-24 18:35:00
11:55 AM,66.2,42.8,43,30.08,10.0,SW,6.9,-,N/A,,Clear,220,2014-04-24 18:55:00
12:15 PM,66.2,44.6,46,30.07,10.0,SW,5.8,-,N/A,,Clear,230,2014-04-24 19:15:00
12:35 PM,66.2,44.6,46,30.07,10.0,SW,3.5,-,N/A,,Clear,220,2014-04-24 19:35:00
12:55 PM,66.2,44.6,46,30.06,10.0,WSW,5.8,-,N/A,,Clear,250,2014-04-24 19:55:00
1:15 PM,68.0,46.4,46,30.05,10.0,NW,5.8,-,N/A,,Clear,310,2014-04-24 20:15:00
1:35 PM,66.2,46.4,49,30.04,10.0,SW,5.8,-,N/A,,Clear,220,2014-04-24 20:35:00
1:55 PM,66.2,44.6,46,30.03,10.0,WSW,5.8,-,N/A,,Clear,250,2014-04-24 20:55:00
2:15 PM,68.0,44.6,43,30.03,10.0,SW,6.9,-,N/A,,Clear,230,2014-04-24 21:15:00
2:35 PM,69.8,44.6,40,30.02,10.0,SSW,4.6,-,N/A,,Clear,200,2014-04-24 21:35:00
2:55 PM,69.8,42.8,38,30.02,10.0,WSW,6.9,-,N/A,,Clear,240,2014-04-24 21:55:00
3:15 PM,71.6,44.6,38,30.01,10.0,WSW,5.8,-,N/A,,Clear,250,2014-04-24 22:15:00
3:35 PM,71.6,41.0,33,30.00,10.0,West,5.8,-,N/A,,Clear,270,2014-04-24 22:35:00
3:55 PM,69.8,37.4,31,29.99,10.0,SW,4.6,-,N/A,,Clear,230,2014-04-24 22:55:00
4:15 PM,68.0,39.2,35,29.99,10.0,SW,8.1,-,N/A,,Clear,230,2014-04-24 23:15:00
4:35 PM,66.2,42.8,43,29.99,10.0,SSW,8.1,-,N/A,,Clear,210,2014-04-24 23:35:00
4:55 PM,66.2,44.6,46,29.99,10.0,South,6.9,-,N/A,,Clear,180,2014-04-24 23:55:00
5:15 PM,66.2,44.6,46,29.99,10.0,SSW,9.2,-,N/A,,Clear,200,2014-04-25 00:15:00
5:35 PM,64.4,41.0,42,29.99,10.0,South,5.8,-,N/A,,Clear,170,2014-04-25 00:35:00
5:55 PM,62.6,41.0,45,29.99,10.0,South,4.6,-,N/A,,Clear,170,2014-04-25 00:55:00
6:15 PM,62.6,41.0,45,29.99,10.0,WNW,4.6,-,N/A,,Clear,300,2014-04-25 01:15:00
6:35 PM,59.0,41.0,51,29.99,10.0,Calm,Calm,-,N/A,,Partly Cloudy,0,2014-04-25 01:35:00
6:55 PM,59.0,39.2,48,29.99,10.0,WNW,3.5,-,N/A,,Mostly Cloudy,300,2014-04-25 01:55:00
7:15 PM,59.0,39.2,48,29.99,10.0,Calm,Calm,-,N/A,,Scattered Clouds,0,2014-04-25 02:15:00
7:35 PM,57.2,41.0,55,29.98,10.0,Calm,Calm,-,N/A,,Mostly Cloudy,0,2014-04-25 02:35:00
7:55 PM,57.2,41.0,55,29.98,10.0,NW,3.5,-,N/A,,Overcast,310,2014-04-25 02:55:00
8:15 PM,57.2,41.0,55,29.98,10.0,NW,3.5,-,N/A,,Overcast,320,2014-04-25 03:15:00
8:35 PM,57.2,41.0,55,29.98,10.0,Calm,Calm,-,N/A,,Overcast,0,2014-04-25 03:35:00
8:55 PM,57.2,41.0,55,29.98,10.0,West,3.5,-,N/A,,Overcast,280,2014-04-25 03:55:00
9:15 PM,55.4,44.6,67,29.97,10.0,NW,3.5,-,N/A,,Overcast,310,2014-04-25 04:15:00
9:35 PM,55.4,46.4,72,29.97,10.0,WNW,4.6,-,N/A,,Overcast,290,2014-04-25 04:35:00
9:55 PM,55.4,46.4,72,29.97,10.0,WNW,3.5,-,N/A,,Overcast,290,2014-04-25 04:55:00
10:15 PM,55.4,48.2,77,29.97,10.0,Calm,Calm,-,N/A,,Overcast,0,2014-04-25 05:15:00
10:35 PM,55.4,48.2,77,29.97,10.0,NW,5.8,-,N/A,,Overcast,310,2014-04-25 05:35:00
10:55 PM,53.6,48.2,82,29.97,10.0,WNW,8.1,-,N/A,,Overcast,300,2014-04-25 05:55:00
11:15 PM,53.6,48.2,82,29.97,10.0,NW,5.8,-,N/A,,Overcast,320,2014-04-25 06:15:00
11:35 PM,53.6,48.2,82,29.97,10.0,WNW,5.8,-,N/A,,Overcast,290,2014-04-25 06:35:00
11:55 PM,53.6,48.2,82,29.96,10.0,NNW,4.6,-,N/A,,Overcast,340,2014-04-25 06:55:00